{"data":{"norad_id":59702,"intl_designator":"2024-086W","name":"STARLINK-32087","alt_names":[],"object_type":"PAYLOAD","status":"ACTIVE","operator":null,"country":"US","launch_date":"2024-05-08","launch_site_code":"AFETR","launch_vehicle":null,"mission":null,"orbit_class":"UNKNOWN","rcs_meters":null,"size_class":null,"mass_kg":null,"dimensions":null,"purposes":["comms"],"wikipedia_slug":null,"has_3d_model":false,"image_url":null,"decayed_at":null,"tle_current":{"epoch":"2026-05-24T14:33:49.747392Z","epoch_age_seconds":108476,"freshness":"FRESH","line1":"1 59702U 24086W   26144.60682578 -.00002880  00000+0 -95174-4 0  9991","line2":"2 59702  43.0043 351.0724 0001458 263.0177  97.0509 15.27577920115726","mean_motion":15.2757792,"eccentricity":0.0001458,"inclination_deg":43.0043,"raan_deg":351.0724,"arg_perigee_deg":263.0177,"mean_anomaly_deg":97.0509,"bstar":-9.5174e-5,"rev_number":11572,"period_min":94.266877070336,"perigee_km":482.05496247411,"apogee_km":484.05568615588,"semimajor_km":6861.192324315,"source":"CELESTRAK","updated_at":"2026-05-25T13:38:19.044368Z"}}}